When you browse on this site, cookies collect data to enhance your experience and personalize the content and advertising you see.
Visit our Privacy Policy to learn more. By continuing to use the site, you agree to this use of cookies and data.

Meteo pe oră la Alife

Astăzi, 7 August, Vineri

Timp Temperatura Precipitaţii Vânt Presiune Umiditate
00:00 +21°C° 0 mm 2 m/s 740 mmHg 71%
01:00 +20°C° 0 mm 2 m/s 740 mmHg 71%
02:00 +20°C° 0 mm 2 m/s 740 mmHg 72%
03:00 +20°C° 0 mm 2 m/s 740 mmHg 74%
04:00 +19°C° 0 mm 2 m/s 739 mmHg 75%
05:00 +21°C° 0 mm 2 m/s 740 mmHg 70%
06:00 +23°C° 0 mm 2 m/s 740 mmHg 65%
07:00 +25°C° 0 mm 2 m/s 740 mmHg 59%
08:00 +27°C° 0 mm 2 m/s 740 mmHg 52%
09:00 +29°C° 0 mm 2 m/s 740 mmHg 45%
10:00 +31°C° 0 mm 2 m/s 741 mmHg 38%
11:00 +31°C° 0.1 mm 3 m/s 740 mmHg 39%
12:00 +30°C° 0.1 mm 3 m/s 740 mmHg 41%
13:00 +30°C° 0.1 mm 4 m/s 740 mmHg 42%
14:00 +30°C° 0.1 mm 3 m/s 740 mmHg 43%
15:00 +30°C° 0.1 mm 3 m/s 740 mmHg 43%
16:00 +30°C° 0.1 mm 3 m/s 740 mmHg 44%
17:00 +29°C° 0.1 mm 2 m/s 740 mmHg 48%
18:00 +27°C° 0.1 mm 2 m/s 740 mmHg 53%
19:00 +26°C° 0.1 mm 1 m/s 740 mmHg 57%
20:00 +25°C° 0 mm 1 m/s 740 mmHg 60%
21:00 +24°C° 0 mm 1 m/s 740 mmHg 63%
22:00 +23°C° 0 mm 1 m/s 740 mmHg 66%
23:00 +23°C° 0 mm 1 m/s 740 mmHg 66%

Mâine, 8 August, Sâmbătă

Timp Temperatura Precipitaţii Vânt Presiune Umiditate
00:00 +22°C° 0 mm 1 m/s 740 mmHg 67%
01:00 +22°C° 0 mm 1 m/s 740 mmHg 67%
02:00 +22°C° 0 mm 1 m/s 740 mmHg 68%
03:00 +22°C° 0 mm 1 m/s 740 mmHg 69%
04:00 +22°C° 0 mm 1 m/s 740 mmHg 70%
05:00 +23°C° 0 mm 1 m/s 740 mmHg 66%
06:00 +24°C° 0 mm 1 m/s 740 mmHg 62%
07:00 +26°C° 0 mm 1 m/s 740 mmHg 58%
08:00 +28°C° 0 mm 2 m/s 740 mmHg 51%
09:00 +30°C° 0 mm 3 m/s 740 mmHg 44%
10:00 +33°C° 0 mm 3 m/s 740 mmHg 37%
11:00 +33°C° 0.1 mm 3 m/s 740 mmHg 39%
12:00 +33°C° 0.1 mm 4 m/s 740 mmHg 40%
13:00 +32°C° 0.1 mm 4 m/s 740 mmHg 42%
14:00 +32°C° 0.1 mm 4 m/s 740 mmHg 42%
15:00 +32°C° 0.1 mm 4 m/s 740 mmHg 42%
16:00 +31°C° 0.1 mm 3 m/s 740 mmHg 42%
17:00 +30°C° 0 mm 3 m/s 740 mmHg 46%
18:00 +28°C° 0 mm 2 m/s 740 mmHg 50%
19:00 +27°C° 0 mm 2 m/s 740 mmHg 53%
20:00 +26°C° 0 mm 2 m/s 740 mmHg 57%
21:00 +25°C° 0 mm 2 m/s 740 mmHg 61%
22:00 +24°C° 0 mm 2 m/s 740 mmHg 65%
23:00 +24°C° 0 mm 2 m/s 740 mmHg 65%

Poimâine, 9 August, Duminică

Timp Temperatura Precipitaţii Vânt Presiune Umiditate
00:00 +23°C° 0 mm 2 m/s 739 mmHg 65%
01:00 +23°C° 0 mm 2 m/s 739 mmHg 64%
02:00 +23°C° 0 mm 2 m/s 739 mmHg 65%
03:00 +23°C° 0 mm 2 m/s 739 mmHg 66%
04:00 +23°C° 0 mm 2 m/s 739 mmHg 67%
05:00 +24°C° 0 mm 2 m/s 739 mmHg 63%
06:00 +26°C° 0 mm 2 m/s 739 mmHg 59%
07:00 +27°C° 0 mm 2 m/s 739 mmHg 55%
08:00 +29°C° 0 mm 2 m/s 740 mmHg 47%
09:00 +33°C° 0 mm 3 m/s 740 mmHg 40%
10:00 +35°C° 0 mm 3 m/s 740 mmHg 32%
11:00 +35°C° 0 mm 4 m/s 740 mmHg 30%
12:00 +36°C° 0 mm 4 m/s 740 mmHg 29%
13:00 +37°C° 0 mm 4 m/s 740 mmHg 27%
14:00 +36°C° 0 mm 4 m/s 739 mmHg 29%
15:00 +36°C° 0 mm 4 m/s 739 mmHg 30%
16:00 +35°C° 0 mm 3 m/s 739 mmHg 32%
17:00 +33°C° 0 mm 3 m/s 739 mmHg 37%
18:00 +30°C° 0 mm 2 m/s 739 mmHg 43%
19:00 +28°C° 0 mm 1 m/s 739 mmHg 48%
20:00 +27°C° 0 mm 1 m/s 739 mmHg 51%
21:00 +26°C° 0 mm 1 m/s 739 mmHg 54%
22:00 +25°C° 0 mm 1 m/s 739 mmHg 58%
23:00 +25°C° 0 mm 1 m/s 739 mmHg 58%

10 August, Luni

Timp Temperatura Precipitaţii Vânt Presiune Umiditate
00:00 +25°C° 0 mm 1 m/s 739 mmHg 58%
01:00 +24°C° 0 mm 1 m/s 739 mmHg 59%
02:00 +24°C° 0 mm 1 m/s 739 mmHg 57%
03:00 +24°C° 0 mm 1 m/s 739 mmHg 56%
04:00 +24°C° 0 mm 1 m/s 739 mmHg 55%
05:00 +25°C° 0 mm 1 m/s 739 mmHg 51%
06:00 +26°C° 0 mm 1 m/s 739 mmHg 47%
07:00 +28°C° 0 mm 1 m/s 739 mmHg 43%
08:00 +30°C° 0 mm 1 m/s 739 mmHg 39%
09:00 +32°C° 0 mm 1 m/s 740 mmHg 34%
10:00 +34°C° 0 mm 1 m/s 740 mmHg 30%
11:00 +36°C° 0 mm 2 m/s 740 mmHg 29%
12:00 +36°C° 0 mm 3 m/s 740 mmHg 28%
13:00 +37°C° 0 mm 3 m/s 740 mmHg 27%
14:00 +36°C° 0 mm 3 m/s 740 mmHg 29%
15:00 +35°C° 0 mm 3 m/s 740 mmHg 32%
16:00 +35°C° 0 mm 3 m/s 739 mmHg 35%
17:00 +33°C° 0 mm 3 m/s 739 mmHg 40%
18:00 +30°C° 0 mm 2 m/s 739 mmHg 46%
19:00 +28°C° 0 mm 1 m/s 739 mmHg 51%
20:00 +27°C° 0.1 mm 1 m/s 740 mmHg 56%
21:00 +26°C° 0.1 mm 1 m/s 740 mmHg 60%
22:00 +23°C° 0.1 mm 0 m/s 740 mmHg 65%
23:00 +23°C° 0 mm 0 m/s 740 mmHg 66%

11 August, Marţi

Timp Temperatura Precipitaţii Vânt Presiune Umiditate
00:00 +22°C° 0 mm 0 m/s 740 mmHg 67%
01:00 +22°C° 0 mm 0 m/s 740 mmHg 67%
02:00 +22°C° 0 mm 0 m/s 740 mmHg 68%
03:00 +21°C° 0 mm 0 m/s 740 mmHg 69%
04:00 +21°C° 0 mm 0 m/s 740 mmHg 70%
05:00 +22°C° 0 mm 0 m/s 740 mmHg 67%
06:00 +24°C° 0 mm 0 m/s 740 mmHg 63%
07:00 +25°C° 0 mm 0 m/s 741 mmHg 59%
08:00 +29°C° 0 mm 1 m/s 741 mmHg 51%
09:00 +31°C° 0 mm 1 m/s 741 mmHg 43%
10:00 +34°C° 0 mm 1 m/s 741 mmHg 35%
11:00 +35°C° 0 mm 2 m/s 741 mmHg 34%
12:00 +36°C° 0 mm 3 m/s 741 mmHg 32%
13:00 +37°C° 0 mm 3 m/s 741 mmHg 31%
14:00 +36°C° 0 mm 3 m/s 741 mmHg 35%
15:00 +35°C° 0 mm 3 m/s 741 mmHg 38%
16:00 +34°C° 0 mm 3 m/s 741 mmHg 42%
17:00 +31°C° 0.1 mm 2 m/s 740 mmHg 49%
18:00 +29°C° 0.1 mm 2 m/s 740 mmHg 57%
19:00 +27°C° 0.1 mm 1 m/s 740 mmHg 64%
20:00 +27°C° 0.1 mm 1 m/s 741 mmHg 67%
21:00 +26°C° 0.1 mm 1 m/s 741 mmHg 70%
22:00 +23°C° 0.1 mm 0 m/s 741 mmHg 73%
23:00 +23°C° 0 mm 0 m/s 741 mmHg 74%

12 August, Miercuri

Timp Temperatura Precipitaţii Vânt Presiune Umiditate
00:00 +22°C° 0 mm 0 m/s 741 mmHg 75%
01:00 +22°C° 0 mm 0 m/s 741 mmHg 76%
02:00 +22°C° 0 mm 0 m/s 740 mmHg 77%
03:00 +21°C° 0 mm 0 m/s 740 mmHg 78%
04:00 +21°C° 0 mm 0 m/s 740 mmHg 80%
05:00 +22°C° 0 mm 0 m/s 740 mmHg 75%
06:00 +24°C° 0 mm 0 m/s 740 mmHg 71%
07:00 +25°C° 0 mm 0 m/s 740 mmHg 67%
08:00 +29°C° 0 mm 1 m/s 740 mmHg 58%
09:00 +31°C° 0 mm 1 m/s 741 mmHg 50%
10:00 +34°C° 0 mm 1 m/s 741 mmHg 41%
11:00 +35°C° 0 mm 2 m/s 741 mmHg 39%
12:00 +36°C° 0 mm 3 m/s 741 mmHg 37%
13:00 +36°C° 0 mm 3 m/s 741 mmHg 35%
14:00 +35°C° 0.6 mm 3 m/s 740 mmHg 42%
15:00 +33°C° 0.6 mm 3 m/s 740 mmHg 49%
16:00 +30°C° 0.6 mm 3 m/s 740 mmHg 56%
17:00 +29°C° 0.7 mm 2 m/s 740 mmHg 60%
18:00 +28°C° 0.7 mm 1 m/s 740 mmHg 65%
19:00 +26°C° 0.7 mm 1 m/s 740 mmHg 69%
20:00 +26°C° 0 mm 1 m/s 740 mmHg 71%
21:00 +25°C° 0 mm 1 m/s 740 mmHg 72%
22:00 +25°C° 0 mm 1 m/s 740 mmHg 73%
23:00 +24°C° 0 mm 1 m/s 740 mmHg 74%
Arată mai mult